Погода в Федоровке

Россия / Астраханская область     45°51′19″N   47°38′12″E
темп.,
°C
ветер,
м/с
пор.,
м/с
влажн.,
%
обл.,
%
осадки,
мм/ч
давл.,
гПа
погр.,
м
24 сентября, пт
пт2401:00+14ссз5882100 0.9 1011367
04:00+14с5987100 0.9 1009349
07:00+14с61084100 0.0 1007460
10:00+16ссз997696 0.0 1007717
13:00+16сз91072100 0.0 1007694
16:00+17сз9116510 0.0 1009861
19:00+13зсз81278100 0.0 1011681
22:00+13зсз61070100 0.0 1013605
25 сентября, сб
сб2501:00+11зсз51079100 0.0 1013388
04:00+10зсз35835 0.0 1013114
07:00+10зсз34860 0.0 101380
10:00+16зсз2259100 0.0 1013552
13:00+19ююз3245100 0.0 10121140
16:00+19зюз2345100 0.0 10121016
19:00+17сз1252100 0.0 101411
22:00+16ююз1153100 0.0 101411
26 сентября, вс
вс2601:00+14з4784100 0.5 1015349
04:00+14зюз61074100 0.9 1016748
07:00+12з610830 0.1 1016390
10:00+16з79565 0.1 1016936
13:00+19з794446 0.1 10162008
16:00+18з71042100 0.1 10151978
19:00+15з7115391 0.0 1015663
22:00+15зюз81468100 0.2 10131133
27 сентября, пн
пн2701:00+15зюз9157999 0.5 10121083
04:00+16зюз91469100 0.6 10111192
07:00+15з813694 0.1 1011912
10:00+17зсз915505 0.1 10121630
13:00+18зсз911395 0.0 10121818
16:00+18зсз811365 0.0 10132311
19:00+15сз59436 0.0 1014365
22:00+13сз36545 0.0 1016149
28 сентября, вт
вт2801:00+11зсз36633 0.0 1016118
04:00+10зсз36700 0.0 1017106
07:00+10зсз35765 0.0 101890
10:00+15сз44515 0.0 1019598
13:00+18ссз544346 0.0 10201798
16:00+18ссз544530 0.0 10201404
19:00+15ссз355684 0.1 1022145
22:00+14ссв795582 0.2 1023551